Location: Little Italy
(37.8008°N, 122.4108°W)
Time: 07:31:38
(UTC+00:00)

Cosmos 614 Rocket - Pass Details

Date: 29 October 2020
Orbit: 734 x 763 km, 74.1° (Epoch: 02 December)

Event Time Altitude Azimuth Distance (km) Brightness Sun altitude
Rises 13:10:56 0° 203° (SSW) 3,189 7.0 -16.7°
Reaches altitude 10° 13:13:18 10° 205° (SSW) 2,264 6.2 -16.2°
Maximum altitude 13:18:25 70° 289° (WNW) 794 3.8 -15.2°
Drops below altitude 10° 13:23:31 10° 13° (NNE) 2,259 6.5 -14.2°
Sets 13:25:53 0° 16° (NNE) 3,182 7.3 -13.7°
